User: anonymous   Login
Location: Unspecified
(0.0000°N, 0.0000°E)
Time: 18:54:27
(UTC+00:00)
Language:

UNISAT 6 - Orbit

View from above orbital plane
View from above orbital plane
View from above satellite
View from above satellite

Ground track
Ground track

The orbit data is extracted from the following two-line orbital elements,

1 40012U 14033C   19340.53857785  .00000111  00000-0  24083-4 0  9997
2 40012  97.7320 199.5666 0056928 266.5838  92.8858 14.74040841293857
Epoch (UTC): 06 December 2019 12:55:33
Eccentricity: 0.0056928
inclination: 97.7320°
perigee height: 608 km
apogee height: 688 km
right ascension of ascending node: 199.5666°
argument of perigee: 266.5838°
revolutions per day: 14.74040841
mean anomaly at epoch: 92.8858°
orbit number at epoch: 29385

The dashed part of the orbit path shows where the satellite is in the earth's shadow,  

DLR